TimeCDT,TemperatureF,Dew PointF,Humidity,Sea Level PressureIn,VisibilityMPH,Wind Direction,Wind SpeedMPH,Gust SpeedMPH,PrecipitationIn,Events,Conditions,WindDirDegrees,DateUTC
12:15 AM,49.1,45.1,86,29.63,10.0,East,6.9,-,N/A,,Mostly Cloudy,80,2013-04-08 05:15:00
12:35 AM,48.4,44.8,87,29.62,7.0,ENE,4.6,-,N/A,,Mostly Cloudy,70,2013-04-08 05:35:00
12:55 AM,48.2,44.6,87,29.62,7.0,Calm,Calm,-,N/A,,Mostly Cloudy,0,2013-04-08 05:55:00
1:15 AM,47.3,44.1,88,29.63,7.0,Calm,Calm,-,N/A,,Mostly Cloudy,0,2013-04-08 06:15:00
1:35 AM,47.3,43.2,86,29.63,10.0,Calm,Calm,-,N/A,,Scattered Clouds,0,2013-04-08 06:35:00
1:55 AM,48.6,44.1,84,29.64,10.0,Calm,Calm,-,N/A,,Mostly Cloudy,0,2013-04-08 06:55:00
2:15 AM,48.2,44.1,86,29.63,10.0,Calm,Calm,-,N/A,,Overcast,0,2013-04-08 07:15:00
2:35 AM,47.5,43.7,87,29.63,10.0,Calm,Calm,-,N/A,,Mostly Cloudy,0,2013-04-08 07:35:00
2:55 AM,46.0,43.2,90,29.62,10.0,Calm,Calm,-,N/A,,Scattered Clouds,0,2013-04-08 07:55:00
3:15 AM,44.1,42.4,94,29.63,7.0,SSW,4.6,-,N/A,,Clear,200,2013-04-08 08:15:00
3:35 AM,44.2,42.8,95,29.63,7.0,South,4.6,-,N/A,,Clear,170,2013-04-08 08:35:00
3:55 AM,45.7,43.2,91,29.62,10.0,South,4.6,-,N/A,,Clear,180,2013-04-08 08:55:00
4:15 AM,43.7,41.4,91,29.62,7.0,Calm,Calm,-,N/A,,Clear,0,2013-04-08 09:15:00
4:35 AM,43.9,42.1,93,29.62,7.0,South,4.6,-,N/A,,Clear,170,2013-04-08 09:35:00
4:55 AM,42.1,41.0,96,29.63,5.0,South,3.5,-,N/A,,Clear,180,2013-04-08 09:55:00
5:15 AM,43.0,41.9,96,29.62,5.0,SSE,3.5,-,N/A,,Clear,160,2013-04-08 10:15:00
5:35 AM,43.3,42.3,96,29.62,7.0,South,3.5,-,N/A,,Clear,180,2013-04-08 10:35:00
5:55 AM,41.4,39.9,95,29.61,4.0,Calm,Calm,-,N/A,,Clear,0,2013-04-08 10:55:00
6:15 AM,39.2,38.3,97,29.62,0.8,Calm,Calm,-,N/A,,Mist,0,2013-04-08 11:15:00
6:35 AM,38.7,37.9,97,29.62,2.0,Calm,Calm,-,N/A,,Clear,0,2013-04-08 11:35:00
6:55 AM,38.3,37.6,97,29.63,0.2,Calm,Calm,-,N/A,Fog,Fog,0,2013-04-08 11:55:00
7:15 AM,38.3,37.8,98,29.65,0.2,Calm,Calm,-,N/A,Fog,Fog,0,2013-04-08 12:15:00
7:35 AM,37.0,36.5,98,29.66,0.2,Calm,Calm,-,N/A,Fog,Fog,0,2013-04-08 12:35:00
7:55 AM,37.6,37.4,99,29.67,0.2,Calm,Calm,-,N/A,Fog,Fog,0,2013-04-08 12:55:00
8:15 AM,40.3,40.1,99,29.68,1.5,North,3.5,-,N/A,,Mist,360,2013-04-08 13:15:00
8:35 AM,42.6,42.4,99,29.69,3.0,Calm,Calm,-,N/A,,Scattered Clouds,0,2013-04-08 13:35:00
8:55 AM,45.7,45.3,99,29.69,4.0,Calm,Calm,-,N/A,,Overcast,0,2013-04-08 13:55:00
9:15 AM,46.8,46.4,99,29.69,3.0,Calm,Calm,-,N/A,,Overcast,0,2013-04-08 14:15:00
9:35 AM,48.0,47.5,98,29.69,4.0,Calm,Calm,-,N/A,,Scattered Clouds,0,2013-04-08 14:35:00
9:55 AM,49.8,48.0,94,29.70,5.0,SW,3.5,-,N/A,,Clear,230,2013-04-08 14:55:00
10:15 AM,52.5,49.3,89,29.70,7.0,Calm,Calm,-,N/A,,Clear,0,2013-04-08 15:15:00
10:35 AM,54.9,49.5,82,29.71,7.0,North,8.1,-,N/A,,Scattered Clouds,10,2013-04-08 15:35:00
10:55 AM,55.0,48.0,77,29.71,10.0,NE,5.8,-,N/A,,Clear,50,2013-04-08 15:55:00
11:15 AM,57.2,48.9,74,29.71,10.0,NE,8.1,-,N/A,,Clear,50,2013-04-08 16:15:00
11:35 AM,57.6,47.3,69,29.71,10.0,NE,9.2,-,N/A,,Clear,40,2013-04-08 16:35:00
11:55 AM,59.4,47.7,65,29.71,10.0,NE,10.4,-,N/A,,Clear,50,2013-04-08 16:55:00
12:15 PM,59.5,46.8,63,29.71,10.0,ENE,11.5,-,N/A,,Clear,70,2013-04-08 17:15:00
12:35 PM,61.5,48.0,61,29.71,10.0,East,9.2,-,N/A,,Clear,80,2013-04-08 17:35:00
12:55 PM,62.2,47.7,59,29.71,10.0,East,10.4,-,N/A,,Clear,100,2013-04-08 17:55:00
1:15 PM,63.5,48.2,57,29.71,10.0,ESE,11.5,-,N/A,,Clear,110,2013-04-08 18:15:00
1:35 PM,64.4,48.0,55,29.70,10.0,ESE,9.2,-,N/A,,Clear,120,2013-04-08 18:35:00
1:55 PM,66.0,47.8,52,29.70,10.0,ESE,9.2,-,N/A,,Clear,110,2013-04-08 18:55:00
2:15 PM,67.1,46.6,48,29.70,10.0,SE,10.4,-,N/A,,Clear,140,2013-04-08 19:15:00
2:35 PM,67.3,46.4,47,29.70,10.0,East,8.1,-,N/A,,Clear,100,2013-04-08 19:35:00
2:55 PM,68.0,46.6,46,29.70,10.0,ESE,9.2,-,N/A,,Clear,110,2013-04-08 19:55:00
3:15 PM,68.5,46.0,44,29.70,10.0,ESE,4.6,-,N/A,,Clear,120,2013-04-08 20:15:00
3:35 PM,69.8,45.0,41,29.70,10.0,SE,6.9,-,N/A,,Clear,130,2013-04-08 20:35:00
3:55 PM,69.6,45.5,42,29.69,10.0,ESE,4.6,-,N/A,,Clear,110,2013-04-08 20:55:00
4:15 PM,71.1,45.3,40,29.69,10.0,East,8.1,-,N/A,,Clear,90,2013-04-08 21:15:00
4:35 PM,71.1,45.3,40,29.69,10.0,ENE,8.1,-,N/A,,Clear,70,2013-04-08 21:35:00
4:55 PM,70.9,45.5,40,29.69,10.0,ENE,10.4,-,N/A,,Scattered Clouds,70,2013-04-08 21:55:00
5:15 PM,70.3,48.4,46,29.70,10.0,ENE,15.0,19.6,N/A,,Scattered Clouds,60,2013-04-08 22:15:00
5:35 PM,67.8,48.6,50,29.70,10.0,NE,16.1,-,N/A,,Clear,50,2013-04-08 22:35:00
5:55 PM,67.5,48.6,51,29.71,10.0,NE,10.4,17.3,N/A,,Clear,50,2013-04-08 22:55:00
6:15 PM,66.4,49.3,54,29.72,10.0,NE,15.0,18.4,N/A,,Clear,50,2013-04-08 23:15:00
6:35 PM,63.5,49.6,61,29.73,10.0,NE,16.1,24.2,N/A,,Clear,50,2013-04-08 23:35:00
6:55 PM,61.7,48.9,63,29.74,10.0,NE,13.8,20.7,N/A,,Clear,40,2013-04-08 23:55:00
7:15 PM,60.4,49.1,66,29.75,10.0,NE,12.7,18.4,N/A,,Clear,50,2013-04-09 00:15:00
7:35 PM,57.7,48.4,71,29.76,10.0,NNE,18.4,-,N/A,,Clear,30,2013-04-09 00:35:00
7:55 PM,56.5,48.6,75,29.77,7.0,NE,12.7,18.4,N/A,,Clear,40,2013-04-09 00:55:00
8:15 PM,55.4,48.2,77,29.78,10.0,NE,12.7,18.4,N/A,,Clear,40,2013-04-09 01:15:00
8:35 PM,54.3,47.8,79,29.80,7.0,NNE,13.8,19.6,N/A,,Clear,30,2013-04-09 01:35:00
8:55 PM,51.6,46.8,83,29.82,7.0,NE,17.3,25.3,N/A,,Mostly Cloudy,50,2013-04-09 01:55:00
9:15 PM,49.8,45.7,86,29.84,5.0,NNE,9.2,27.6,N/A,,Overcast,30,2013-04-09 02:15:00
9:35 PM,48.9,45.1,87,29.85,5.0,NE,16.1,25.3,N/A,,Overcast,40,2013-04-09 02:35:00
9:55 PM,47.7,44.4,89,29.85,5.0,NNE,17.3,23.0,N/A,,Overcast,30,2013-04-09 02:55:00
10:15 PM,47.3,44.1,88,29.86,5.0,NE,16.1,24.2,N/A,,Overcast,40,2013-04-09 03:15:00
10:35 PM,46.9,43.7,88,29.87,5.0,NNE,18.4,26.5,N/A,,Overcast,30,2013-04-09 03:35:00
10:55 PM,46.6,43.7,90,29.87,5.0,NE,17.3,25.3,N/A,,Overcast,40,2013-04-09 03:55:00
11:15 PM,46.4,43.2,88,29.84,4.0,NNE,19.6,26.5,N/A,,Overcast,30,2013-04-09 04:15:00
11:35 PM,45.9,43.0,90,29.84,4.0,NE,16.1,29.9,N/A,,Overcast,40,2013-04-09 04:35:00
11:55 PM,45.7,42.8,90,29.84,4.0,NE,20.7,28.8,N/A,,Overcast,40,2013-04-09 04:55:00